Location: Bernay
(48.6766°N, 2.9386°E)
Time: 10:21:33
(UTC+00:00)

SKYMED 2 - Pass Details

Date: 12 January 2026
Orbit: 622 x 624 km, 97.9° (Epoch: 15 February)

Event Time Altitude Azimuth Distance (km) Brightness Sun altitude
Exits shadow 18:32:26 10° 4° (N) 1,998 6.0 -21.8°
Maximum altitude 18:36:37 49° 289° (WNW) 805 4.4 -22.5°
Drops below altitude 10° 18:40:48 10° 215° (SW) 1,989 6.7 -23.2°
Sets 18:43:01 0° 210° (SSW) 2,890 7.5 -23.5°
